GW1561 Weather Reports


time (UTC)temp
F
wind
direction
speed
knots
gust
knots
rain 1hr
in
rain 24hr
in
rain mn
in
humidity
%
barometer
mb
20260508093011 34 337 0.0 0.0 0.00 0.00 0.00 97 985.4
20260508092441 34 336 0.0 0.0 0.00 0.00 0.00 98 985.4
20260508091844 34 337 0.0 0.0 0.00 0.00 0.00 97 985.4
20260508091227 34 337 0.0 0.0 0.00 0.00 0.00 97 985.1
20260508090611 34 335 0.0 0.0 0.00 0.00 0.00 97 985.1
20260508090017 34 336 0.0 0.0 0.00 0.00 0.00 97 985.1
20260508085452 34 337 0.0 0.0 0.00 0.00 0.00 97 985.1
20260508084851 34 337 0.0 0.0 0.00 0.00 0.00 97 984.7
20260508084213 34 340 0.0 0.0 0.00 0.00 0.00 97 985.1
20260508083637 35 340 0.0 0.0 0.00 0.00 0.00 97 985.1
20260508083030 35 337 0.0 0.0 0.00 0.00 0.00 97 985.1
20260508082410 35 340 0.0 0.0 0.00 0.00 0.00 97 985.1
20260508081835 35 340 0.0 0.0 0.00 0.00 0.00 97 984.7
20260508081242 35 337 0.0 0.0 0.00 0.00 0.00 97 985.1
20260508080642 35 333 0.0 0.0 0.00 0.00 0.00 97 985.1
20260508080018 35 331 0.0 0.0 0.00 0.00 0.00 97 985.1
20260508075412 35 336 0.0 0.0 0.00 0.00 0.00 97 985.1
20260508074838 35 333 0.0 0.0 0.00 0.00 0.00 97 985.1
20260508074244 35 340 0.0 0.0 0.00 0.00 0.00 97 985.1
20260508071849 36 333 0.0 0.0 0.00 0.00 0.00 97 984.4
20260508071218 35 337 0.0 0.0 0.00 0.00 0.00 97 984.7
20260508070629 36 337 0.0 0.0 0.00 0.00 0.00 97 984.7
20260508070013 36 337 0.0 0.0 0.00 0.00 0.00 97 984.7
20260508064815 36 333 0.0 0.0 0.00 0.00 0.00 97 984.7
20260508064240 36 337 0.0 0.0 0.00 0.00 0.00 97 984.7
20260508063615 36 337 0.0 0.0 0.00 0.00 0.00 97 984.7
20260508063019 37 336 0.0 0.0 0.00 0.00 0.00 97 984.7
20260508062446 37 331 0.0 0.0 0.00 0.00 0.00 97 985.1
20260508061847 37 336 0.0 0.0 0.00 0.00 0.00 97 984.7
20260508061251 37 336 0.0 0.0 0.00 0.00 0.00 96 985.1
20260508060018 37 333 0.0 0.0 0.00 0.00 0.00 96 984.7
20260508055412 37 337 0.0 0.0 0.00 0.00 0.00 96 984.7
20260508054842 37 337 0.0 0.0 0.00 0.00 0.00 96 984.7
20260508054247 37 337 0.0 0.0 0.00 0.00 0.00 96 984.7
20260508053023 38 333 0.0 0.0 0.00 0.00 0.00 96 984.7
20260508052422 38 327 0.0 0.0 0.00 0.00 0.00 96 984.7
20260508051812 38 336 0.0 0.0 0.00 0.00 0.00 96 984.7
20260508050015 38 327 0.0 0.0 0.00 0.00 0.00 96 984.7
20260508045408 39 331 0.0 0.0 0.00 0.00 0.00 96 984.4
20260508044823 38 336 0.0 0.0 0.00 0.00 0.00 95 984.7
20260508044236 38 337 0.0 0.0 0.00 0.00 0.00 95 984.7
20260508043641 39 337 0.0 0.0 0.00 0.00 0.00 95 984.7
20260508043040 39 337 0.0 0.0 0.00 0.00 0.00 95 985.1
20260508042452 39 335 0.0 0.0 0.00 0.00 0.00 95 984.7
20260508041839 40 335 0.0 0.0 0.00 0.00 0.00 95 984.7
20260508041239 40 335 0.0 0.0 0.00 0.00 0.00 95 984.7
20260508040031 40 337 0.0 0.0 0.00 0.00 0.00 94 984.7
20260508034212 40 329 0.0 0.0 0.00 0.00 0.00 94 984.4
20260508033026 41 333 0.0 0.0 0.00 0.00 0.00 94 984.4
20260508032422 41 334 0.0 0.0 0.00 0.00 0.00 93 984.4
20260508031833 41 334 0.0 0.0 0.00 0.00 0.00 93 984.0
20260508031219 42 333 0.0 0.0 0.00 0.00 0.00 93 984.4
20260508030621 42 335 0.0 0.0 0.00 0.00 0.00 93 984.4
20260508030049 42 335 0.0 0.0 0.00 0.00 0.00 93 984.0
20260508025436 42 335 0.0 0.0 0.00 0.00 0.00 92 984.0
20260508024821 42 335 0.0 0.0 0.00 0.00 0.00 92 984.0
20260508024231 43 333 0.0 0.0 0.00 0.00 0.00 91 984.0
20260508023617 43 333 0.0 0.0 0.00 0.00 0.00 91 983.7
20260508023046 43 332 0.0 0.0 0.00 0.00 0.00 91 983.7
20260508022438 43 333 0.0 0.0 0.00 0.00 0.00 90 983.7
20260508021816 44 333 0.0 0.0 0.00 0.00 0.00 90 983.4
20260508020618 44 333 0.0 0.0 0.00 0.00 0.00 90 983.4
20260508020040 44 333 0.0 0.0 0.00 0.00 0.00 89 983.4
20260508015442 45 333 0.0 0.0 0.00 0.00 0.00 89 983.0
20260508014848 45 333 0.0 0.0 0.00 0.00 0.00 88 983.0
20260508014239 45 333 0.0 0.0 0.00 0.00 0.00 88 983.4
20260508013652 46 333 0.0 0.0 0.00 0.00 0.00 87 983.0
20260508013013 46 333 0.0 0.0 0.00 0.00 0.00 87 983.0
20260508012448 46 333 0.0 0.0 0.00 0.00 0.00 86 982.7
20260508011837 47 333 0.0 0.0 0.00 0.00 0.00 85 982.3
20260508010027 48 333 0.0 0.0 0.00 0.00 0.00 84 982.3
20260508005409 48 333 0.0 0.0 0.00 0.00 0.00 83 982.3
20260508004812 49 333 0.0 0.0 0.00 0.00 0.00 82 982.3
20260508004211 49 333 0.0 0.0 0.00 0.00 0.00 80 982.3
20260508003626 50 332 0.0 0.0 0.00 0.00 0.00 81 982.3
20260508003023 50 333 0.0 0.0 0.00 0.00 0.00 79 982.3
20260508002451 51 333 0.0 0.0 0.00 0.00 0.00 79 982.3
20260508001824 51 332 0.0 0.0 0.00 0.00 0.00 78
20260508001210 52 333 0.0 0.0 0.00 0.00 0.00 75
20260508000633 52 336 0.0 0.0 0.00 0.00 0.00 73
20260507234831 54 327 0.0 1.7 0.00 0.00 0.00 72
20260507233611 56 333 0.0 0.0 0.00 0.00 0.00 70
20260507233013 56 333 0.0 0.0 0.00 0.00 0.00 65
20260507232440 57 336 0.0 0.0 0.00 0.00 0.00 65
20260507231834 58 337 0.0 0.0 0.00 0.00 0.00 61
20260507231209 59 342 0.0 0.0 0.00 0.00 0.00 56
20260507230638 60 337 0.0 0.0 0.00 0.00 0.00 58
20260507224829 61 344 0.9 2.6 0.00 0.00 0.00 43
20260507224214 62 345 0.0 1.7 0.00 0.00 0.00 44
20260507223013 61 359 0.0 0.9 0.00 0.00 0.00 47
20260507221810 62 352 1.7 5.2 0.00 0.00 0.00 42
20260507221222 61 356 0.9 2.6 0.00 0.00 0.00 46
20260507220630 62 3 0.9 3.5 0.00 0.00 0.00 43
20260507220029 62 223 2.6 2.6 0.00 0.00 0.00 44
20260507215448 63 322 1.7 2.6 0.00 0.00 0.00 44
20260507214815 64 250 1.7 2.6 0.00 0.00 0.00 46
20260507214220 64 349 2.6 5.2 0.00 0.00 0.00 45
20260507213642 63 67 1.7 1.7 0.00 0.00 0.00 43
20260507213045 63 31 2.6 2.6 0.00 0.00 0.00 45
20260507212409 64 211 1.7 6.1 0.00 0.00 0.00 47
20260507211840 64 312 0.9 1.7 0.00 0.00 0.00 45
20260507211210 64 190 3.5 3.5 0.00 0.00 0.00 48
20260507210631 63 343 1.7 2.6 0.00 0.00 0.00 43
20260507210013 63 35 3.5 5.2 0.00 0.00 0.00 43
20260507205410 64 5 1.7 2.6 0.00 0.00 0.00 51
20260507204215 64 102 2.6 5.2 0.00 0.00 0.00 49
20260507203650 64 307 4.3 7.8 0.00 0.00 0.00 46
20260507203050 64 33 0.9 3.5 0.00 0.00 0.00 54
20260507202447 64 241 1.7 1.7 0.00 0.00 0.00 49
20260507201828 63 355 0.0 6.1 0.00 0.00 0.00 49
20260507201216 63 342 0.0 0.9 0.00 0.00 0.00 50
20260507200634 64 3 0.9 7.0 0.00 0.00 0.00 45
20260507200042 64 277 1.7 2.6 0.00 0.00 0.00 50
20260507195419 62 24 0.9 3.5 0.00 0.00 0.00 49
20260507194822 64 349 1.7 3.5 0.00 0.00 0.00 47
20260507194242 63 12 0.9 3.5 0.00 0.00 0.00 52
20260507193648 62 346 0.0 1.7 0.00 0.00 0.00 53
20260507193028 62 16 2.6 5.2 0.00 0.00 0.00 49
20260507192437 63 190 1.7 3.5 0.00 0.00 0.00 48
20260507191828 64 321 0.9 0.9 0.00 0.00 0.00 52
20260507191226 63 303 0.0 3.5 0.00 0.00 0.00 49
20260507190624 63 342 0.0 3.5 0.00 0.00 0.00 50
20260507190024 64 34 6.1 7.8 0.00 0.00 0.00 49
20260507185431 65 13 0.0 8.7 0.00 0.00 0.00 50
20260507184824 64 23 1.7 3.5 0.00 0.00 0.00 51
20260507184236 65 222 0.9 1.7 0.00 0.00 0.00 48
20260507183644 65 351 0.9 5.2 0.00 0.00 0.00 49
20260507183018 62 294 0.9 0.9 0.00 0.00 0.00 53
20260507182417 62 7 2.6 3.5 0.00 0.00 0.00 62
20260507181850 63 17 0.9 1.7 0.00 0.00 0.00 51
20260507181227 65 6 0.0 6.1 0.00 0.00 0.00 48
20260507180617 64 46 1.7 2.6 0.00 0.00 0.00 50
20260507175424 64 2 2.6 3.5 0.00 0.00 0.00 53
20260507174829 65 11 0.9 5.2 0.00 0.00 0.00 51
20260507174209 64 10 0.0 2.6 0.00 0.00 0.00 51
20260507173614 63 353 0.0 5.2 0.00 0.00 0.00 53
20260507173052 63 351 0.9 1.7 0.00 0.00 0.00 55
20260507172444 63 5 2.6 3.5 0.00 0.00 0.00 61
20260507171848 61 237 0.9 0.9 0.00 0.00 0.00 59
20260507171215 60 226 1.7 3.5 0.00 0.00 0.00 61
20260507170653 59 354 0.9 1.7 0.00 0.00 0.00 62
20260507170024 59 0 0.0 1.7 0.00 0.00 0.00 63
20260507165432 60 338 0.0 1.7 0.00 0.00 0.00 60
20260507164846 62 17 0.0 0.9 0.00 0.00 0.00 57
20260507163628 60 349 0.0 0.9 0.00 0.00 0.00 62
20260507163019 59 13 2.6 5.2 0.00 0.00 0.00 61 982.3
20260507162447 60 346 0.0 0.9 0.00 0.00 0.00 65 982.3
20260507161847 59 317 0.0 0.0 0.00 0.00 0.00 63 982.3
20260507161236 61 315 1.7 2.6 0.00 0.00 0.00 60 982.3
20260507160647 62 316 1.7 1.7 0.00 0.00 0.00 64 982.3
20260507160048 59 234 2.6 3.5 0.00 0.00 0.00 62 982.3
20260507155436 57 356 0.0 0.0 0.00 0.00 0.00 65 982.7
20260507154825 57 342 0.0 0.0 0.00 0.00 0.00 64 982.3
20260507154227 57 275 1.7 1.7 0.00 0.00 0.00 64 982.3
20260507153642 58 353 0.0 0.9 0.00 0.00 0.00 61 982.3
20260507153047 58 335 0.0 2.6 0.00 0.00 0.00 63 982.7
20260507151221 57 5 0.9 1.7 0.00 0.00 0.00 65 983.0
20260507150650 56 355 0.9 0.9 0.00 0.00 0.00 67 982.7
20260507150015 55 347 0.0 0.0 0.00 0.00 0.00 71 982.7
20260507145432 55 354 0.0 0.0 0.00 0.00 0.00 74 982.7
20260507144824 55 356 0.0 0.0 0.00 0.00 0.00 73 982.7
20260507144217 56 346 0.0 0.0 0.00 0.00 0.00 75 983.0
20260507143646 55 350 0.0 0.0 0.00 0.00 0.00 78 982.7
20260507142415 54 330 0.0 0.0 0.00 0.00 0.00 80 982.7
20260507141817 54 332 0.0 0.9 0.00 0.00 0.00 81 983.0
20260507141245 53 339 0.0 0.0 0.00 0.00 0.00 82 983.4
20260507140627 54 329 0.0 0.0 0.00 0.00 0.00 82 983.4
20260507140032 53 333 0.0 0.0 0.00 0.00 0.00 83 983.0
20260507135419 53 348 0.0 0.0 0.00 0.00 0.00 84 983.4
20260507134816 53 331 0.0 0.9 0.00 0.00 0.00 86 983.4
20260507134217 53 324 0.0 0.0 0.00 0.00 0.00 86 983.4
20260507133622 53 328 0.0 0.9 0.00 0.00 0.00 86 983.4
20260507133045 53 341 0.0 0.0 0.00 0.00 0.00 91 983.4
20260507132447 52 338 0.0 0.0 0.00 0.00 0.00 92 983.7
20260507131816 52 346 0.0 0.0 0.00 0.00 0.00 93 983.7
20260507131223 51 346 0.0 0.0 0.00 0.00 0.00 95 983.4
20260507130625 50 348 0.0 0.9 0.00 0.00 0.00 96 983.4
20260507130016 51 344 0.0 0.0 0.00 0.00 0.00 98 983.4
20260507125427 50 344 0.0 0.0 0.00 0.00 0.00 98 983.4
20260507124848 50 341 0.0 0.0 0.00 0.00 0.00 98 983.4
20260507123614 50 337 0.0 0.0 0.00 0.00 0.00 99 983.7
20260507123031 50 345 0.0 0.0 0.00 0.00 0.00 99 983.4
20260507122425 50 345 0.0 0.0 0.00 0.00 0.00 99 983.7
20260507121835 50 345 0.0 0.0 0.00 0.00 0.00 99 983.4
20260507121211 50 344 0.0 0.0 0.00 0.00 0.00 99 983.4
20260507120620 50 344 0.0 0.0 0.00 0.00 0.00 99 983.7
20260507115423 49 344 0.0 0.0 0.00 0.00 0.00 99 983.7
20260507114843 50 342 0.0 0.0 0.00 0.00 0.00 99 983.7
20260507114212 49 340 0.0 0.0 0.00 0.00 0.00 99 983.7
20260507113639 49 340 0.0 0.0 0.00 0.00 0.00 99 983.4
20260507113040 49 333 0.0 0.0 0.00 0.00 0.00 99 983.4
20260507112416 49 336 0.0 0.0 0.00 0.00 0.00 99 983.4
20260507111849 49 333 0.0 0.0 0.00 0.00 0.00 99 983.0
20260507111239 49 337 0.0 0.0 0.00 0.00 0.00 99 983.0
20260507110617 49 336 0.0 0.0 0.00 0.00 0.00 99 983.0
20260507110050 49 337 0.0 0.0 0.00 0.00 0.00 99 983.0
20260507105425 49 336 0.0 0.0 0.00 0.00 0.00 99 982.7
20260507104852 49 333 0.0 0.0 0.00 0.00 0.00 99 982.7
20260507103653 49 337 0.0 0.0 0.00 0.00 0.00 99 982.7
20260507103022 49 336 0.0 0.0 0.00 0.00 0.00 99 982.7
20260507102412 49 335 0.0 0.0 0.00 0.00 0.00 99 982.7
20260507101824 49 340 0.0 0.0 0.00 0.00 0.00 99 982.3
20260507101231 48 340 0.0 0.0 0.00 0.00 0.00 99 982.7
20260507100652 49 340 0.0 0.0 0.00 0.00 0.00 99 982.3
20260507094809 49 333 0.0 0.0 0.00 0.00 0.00 99 982.7
20260507094235 49 340 0.0 0.0 0.00 0.00 0.00 99 982.7
20260507093014 49 335 0.0 0.0 0.00 0.00 0.00 99 982.7